owner,sensor,date,latitude,longitude,air_temperature,qcFlag 
COMPS,ioos:station:USF.COMPS:TAR:1,2009-09-01T00:00:00Z,28.1560,-82.7580,29.47,1111122 
COMPS,ioos:station:USF.COMPS:TAR:1,2009-09-01T00:06:00Z,28.1560,-82.7580,29.36,1111122 
COMPS,ioos:station:USF.COMPS:TAR:1,2009-09-01T00:12:00Z,28.1560,-82.7580,29.24,1111122 
COMPS,ioos:station:USF.COMPS:TAR:1,2009-09-01T00:18:00Z,28.1560,-82.7580,29.24,1111122 
COMPS,ioos:station:USF.COMPS:TAR:1,2009-09-01T00:24:00Z,28.1560,-82.7580,29.3,1111122 
COMPS,ioos:station:USF.COMPS:TAR:1,2009-09-01T00:30:00Z,28.1560,-82.7580,29.24,1111122 
COMPS,ioos:station:USF.COMPS:TAR:1,2009-09-01T00:36:00Z,28.1560,-82.7580,29.2,1111122 
COMPS,ioos:station:USF.COMPS:TAR:1,2009-09-01T00:42:00Z,28.1560,-82.7580,29.04,1111122 
COMPS,ioos:station:USF.COMPS:TAR:1,2009-09-01T00:48:00Z,28.1560,-82.7580,28.83,1111122 
COMPS,ioos:station:USF.COMPS:TAR:1,2009-09-01T00:54:00Z,28.1560,-82.7580,28.67,1111122 
COMPS,ioos:station:USF.COMPS:TAR:1,2009-09-01T01:00:00Z,28.1560,-82.7580,28.56,1111122 
COMPS,ioos:station:USF.COMPS:TAR:1,2009-09-01T01:06:00Z,28.1560,-82.7580,28.55,1111122 
COMPS,ioos:station:USF.COMPS:TAR:1,2009-09-01T01:12:00Z,28.1560,-82.7580,28.53,1111122 
COMPS,ioos:station:USF.COMPS:TAR:1,2009-09-01T01:18:00Z,28.1560,-82.7580,28.55,1111122 
COMPS,ioos:station:USF.COMPS:TAR:1,2009-09-01T01:24:00Z,28.1560,-82.7580,28.62,1111122 
COMPS,ioos:station:USF.COMPS:TAR:1,2009-09-01T01:30:00Z,28.1560,-82.7580,28.56,1111122 
COMPS,ioos:station:USF.COMPS:TAR:1,2009-09-01T01:36:00Z,28.1560,-82.7580,28.55,1111122 
COMPS,ioos:station:USF.COMPS:TAR:1,2009-09-01T01:42:00Z,28.1560,-82.7580,28.55,1111122 
COMPS,ioos:station:USF.COMPS:TAR:1,2009-09-01T01:48:00Z,28.1560,-82.7580,28.56,1111122 
COMPS,ioos:station:USF.COMPS:TAR:1,2009-09-01T01:54:00Z,28.1560,-82.7580,28.56,1111122 
COMPS,ioos:station:USF.COMPS:TAR:1,2009-09-01T02:00:00Z,28.1560,-82.7580,28.56,1111122 
COMPS,ioos:station:USF.COMPS:TAR:1,2009-09-01T02:06:00Z,28.1560,-82.7580,28.64,1111122 
COMPS,ioos:station:USF.COMPS:TAR:1,2009-09-01T02:12:00Z,28.1560,-82.7580,28.68,1111122 
COMPS,ioos:station:USF.COMPS:TAR:1,2009-09-01T02:18:00Z,28.1560,-82.7580,28.69,1111122 
COMPS,ioos:station:USF.COMPS:TAR:1,2009-09-01T02:24:00Z,28.1560,-82.7580,28.66,1111122 
COMPS,ioos:station:USF.COMPS:TAR:1,2009-09-01T02:30:00Z,28.1560,-82.7580,28.56,1111122 
COMPS,ioos:station:USF.COMPS:TAR:1,2009-09-01T02:36:00Z,28.1560,-82.7580,28.56,1111122 
COMPS,ioos:station:USF.COMPS:TAR:1,2009-09-01T02:42:00Z,28.1560,-82.7580,28.46,1111122 
COMPS,ioos:station:USF.COMPS:TAR:1,2009-09-01T02:48:00Z,28.1560,-82.7580,28.42,1111122 
COMPS,ioos:station:USF.COMPS:TAR:1,2009-09-01T02:54:00Z,28.1560,-82.7580,28.4,1111122 
COMPS,ioos:station:USF.COMPS:TAR:1,2009-09-01T03:00:00Z,28.1560,-82.7580,28.31,1111122 
COMPS,ioos:station:USF.COMPS:TAR:1,2009-09-01T03:06:00Z,28.1560,-82.7580,28.29,1111122 
COMPS,ioos:station:USF.COMPS:TAR:1,2009-09-01T03:12:00Z,28.1560,-82.7580,28.29,1111122 
COMPS,ioos:station:USF.COMPS:TAR:1,2009-09-01T03:18:00Z,28.1560,-82.7580,28.24,1111122 
COMPS,ioos:station:USF.COMPS:TAR:1,2009-09-01T03:24:00Z,28.1560,-82.7580,28.46,1111122 
COMPS,ioos:station:USF.COMPS:TAR:1,2009-09-01T03:30:00Z,28.1560,-82.7580,28.87,1111122 
COMPS,ioos:station:USF.COMPS:TAR:1,2009-09-01T03:36:00Z,28.1560,-82.7580,28.45,1111122 
COMPS,ioos:station:USF.COMPS:TAR:1,2009-09-01T03:42:00Z,28.1560,-82.7580,28.16,1111122 
COMPS,ioos:station:USF.COMPS:TAR:1,2009-09-01T03:48:00Z,28.1560,-82.7580,28.02,1111122 
COMPS,ioos:station:USF.COMPS:TAR:1,2009-09-01T03:54:00Z,28.1560,-82.7580,28.07,1111122 
COMPS,ioos:station:USF.COMPS:TAR:1,2009-09-01T04:00:00Z,28.1560,-82.7580,27.82,1111122 
COMPS,ioos:station:USF.COMPS:TAR:1,2009-09-01T04:06:00Z,28.1560,-82.7580,27.6,1111122 
COMPS,ioos:station:USF.COMPS:TAR:1,2009-09-01T04:12:00Z,28.1560,-82.7580,27.35,1111122 
COMPS,ioos:station:USF.COMPS:TAR:1,2009-09-01T04:18:00Z,28.1560,-82.7580,27.28,1111122 
COMPS,ioos:station:USF.COMPS:TAR:1,2009-09-01T04:24:00Z,28.1560,-82.7580,27.35,1111122 
COMPS,ioos:station:USF.COMPS:TAR:1,2009-09-01T04:30:00Z,28.1560,-82.7580,27.08,1111122 
COMPS,ioos:station:USF.COMPS:TAR:1,2009-09-01T04:36:00Z,28.1560,-82.7580,27.08,1111122 
COMPS,ioos:station:USF.COMPS:TAR:1,2009-09-01T04:42:00Z,28.1560,-82.7580,27.25,1111122 
COMPS,ioos:station:USF.COMPS:TAR:1,2009-09-01T04:48:00Z,28.1560,-82.7580,27.37,1111122 
COMPS,ioos:station:USF.COMPS:TAR:1,2009-09-01T04:54:00Z,28.1560,-82.7580,27.08,1111122 
COMPS,ioos:station:USF.COMPS:TAR:1,2009-09-01T05:00:00Z,28.1560,-82.7580,27.02,1111122 
COMPS,ioos:station:USF.COMPS:TAR:1,2009-09-01T05:06:00Z,28.1560,-82.7580,27.53,1111122 
COMPS,ioos:station:USF.COMPS:TAR:1,2009-09-01T05:12:00Z,28.1560,-82.7580,27.71,1111122 
COMPS,ioos:station:USF.COMPS:TAR:1,2009-09-01T05:18:00Z,28.1560,-82.7580,27.57,1111122 
COMPS,ioos:station:USF.COMPS:TAR:1,2009-09-01T05:24:00Z,28.1560,-82.7580,27.48,1111122 
COMPS,ioos:station:USF.COMPS:TAR:1,2009-09-01T05:30:00Z,28.1560,-82.7580,27.45,1111122 
COMPS,ioos:station:USF.COMPS:TAR:1,2009-09-01T05:36:00Z,28.1560,-82.7580,27.5,1111122 
COMPS,ioos:station:USF.COMPS:TAR:1,2009-09-01T05:42:00Z,28.1560,-82.7580,27.51,1111122 
COMPS,ioos:station:USF.COMPS:TAR:1,2009-09-01T05:48:00Z,28.1560,-82.7580,27.35,1111122 
COMPS,ioos:station:USF.COMPS:TAR:1,2009-09-01T05:54:00Z,28.1560,-82.7580,27.17,1111122 
COMPS,ioos:station:USF.COMPS:TAR:1,2009-09-01T06:00:00Z,28.1560,-82.7580,27.1,1111122 
COMPS,ioos:station:USF.COMPS:TAR:1,2009-09-01T06:06:00Z,28.1560,-82.7580,27.09,1111122 
COMPS,ioos:station:USF.COMPS:TAR:1,2009-09-01T06:12:00Z,28.1560,-82.7580,26.81,1111122 
COMPS,ioos:station:USF.COMPS:TAR:1,2009-09-01T06:18:00Z,28.1560,-82.7580,26.69,1111122 
COMPS,ioos:station:USF.COMPS:TAR:1,2009-09-01T06:24:00Z,28.1560,-82.7580,26.88,1111122 
COMPS,ioos:station:USF.COMPS:TAR:1,2009-09-01T06:30:00Z,28.1560,-82.7580,26.67,1111122 
COMPS,ioos:station:USF.COMPS:TAR:1,2009-09-01T06:36:00Z,28.1560,-82.7580,26.64,1111122 
COMPS,ioos:station:USF.COMPS:TAR:1,2009-09-01T06:42:00Z,28.1560,-82.7580,26.62,1111122 
COMPS,ioos:station:USF.COMPS:TAR:1,2009-09-01T06:48:00Z,28.1560,-82.7580,26.72,1111122 
COMPS,ioos:station:USF.COMPS:TAR:1,2009-09-01T06:54:00Z,28.1560,-82.7580,26.47,1111122 
COMPS,ioos:station:USF.COMPS:TAR:1,2009-09-01T07:00:00Z,28.1560,-82.7580,26.32,1111122 
COMPS,ioos:station:USF.COMPS:TAR:1,2009-09-01T07:06:00Z,28.1560,-82.7580,26.28,1111122 
COMPS,ioos:station:USF.COMPS:TAR:1,2009-09-01T07:12:00Z,28.1560,-82.7580,26.12,1111122 
COMPS,ioos:station:USF.COMPS:TAR:1,2009-09-01T07:18:00Z,28.1560,-82.7580,26.02,1111122 
COMPS,ioos:station:USF.COMPS:TAR:1,2009-09-01T07:24:00Z,28.1560,-82.7580,26.04,1111122 
COMPS,ioos:station:USF.COMPS:TAR:1,2009-09-01T07:30:00Z,28.1560,-82.7580,25.88,1111122 
COMPS,ioos:station:USF.COMPS:TAR:1,2009-09-01T07:36:00Z,28.1560,-82.7580,25.88,1111122 
COMPS,ioos:station:USF.COMPS:TAR:1,2009-09-01T07:42:00Z,28.1560,-82.7580,25.77,1111122 
COMPS,ioos:station:USF.COMPS:TAR:1,2009-09-01T07:48:00Z,28.1560,-82.7580,25.77,1111122 
COMPS,ioos:station:USF.COMPS:TAR:1,2009-09-01T07:54:00Z,28.1560,-82.7580,25.75,1111122 
COMPS,ioos:station:USF.COMPS:TAR:1,2009-09-01T08:00:00Z,28.1560,-82.7580,25.8,1111122 
COMPS,ioos:station:USF.COMPS:TAR:1,2009-09-01T08:06:00Z,28.1560,-82.7580,25.97,1111122 
COMPS,ioos:station:USF.COMPS:TAR:1,2009-09-01T08:12:00Z,28.1560,-82.7580,25.91,1111122 
COMPS,ioos:station:USF.COMPS:TAR:1,2009-09-01T08:18:00Z,28.1560,-82.7580,25.89,1111122 
COMPS,ioos:station:USF.COMPS:TAR:1,2009-09-01T08:24:00Z,28.1560,-82.7580,25.94,1111122 
COMPS,ioos:station:USF.COMPS:TAR:1,2009-09-01T08:30:00Z,28.1560,-82.7580,25.84,1111122 
COMPS,ioos:station:USF.COMPS:TAR:1,2009-09-01T08:36:00Z,28.1560,-82.7580,25.88,1111122 
COMPS,ioos:station:USF.COMPS:TAR:1,2009-09-01T08:42:00Z,28.1560,-82.7580,25.89,1111122 
COMPS,ioos:station:USF.COMPS:TAR:1,2009-09-01T08:48:00Z,28.1560,-82.7580,25.87,1111122 
COMPS,ioos:station:USF.COMPS:TAR:1,2009-09-01T08:54:00Z,28.1560,-82.7580,25.61,1111122 
COMPS,ioos:station:USF.COMPS:TAR:1,2009-09-01T09:00:00Z,28.1560,-82.7580,25.51,1111122 
COMPS,ioos:station:USF.COMPS:TAR:1,2009-09-01T09:06:00Z,28.1560,-82.7580,25.38,1111122 
COMPS,ioos:station:USF.COMPS:TAR:1,2009-09-01T09:12:00Z,28.1560,-82.7580,25.35,1111122 
COMPS,ioos:station:USF.COMPS:TAR:1,2009-09-01T09:18:00Z,28.1560,-82.7580,25.37,1111122 
COMPS,ioos:station:USF.COMPS:TAR:1,2009-09-01T09:24:00Z,28.1560,-82.7580,25.6,1111122 
COMPS,ioos:station:USF.COMPS:TAR:1,2009-09-01T09:30:00Z,28.1560,-82.7580,25.46,1111122 
COMPS,ioos:station:USF.COMPS:TAR:1,2009-09-01T09:36:00Z,28.1560,-82.7580,25.49,1111122 
COMPS,ioos:station:USF.COMPS:TAR:1,2009-09-01T09:42:00Z,28.1560,-82.7580,25.5,1111122 
COMPS,ioos:station:USF.COMPS:TAR:1,2009-09-01T09:48:00Z,28.1560,-82.7580,25.5,1111122 
COMPS,ioos:station:USF.COMPS:TAR:1,2009-09-01T09:54:00Z,28.1560,-82.7580,25.49,1111122 
COMPS,ioos:station:USF.COMPS:TAR:1,2009-09-01T10:00:00Z,28.1560,-82.7580,25.56,1111122 
COMPS,ioos:station:USF.COMPS:TAR:1,2009-09-01T10:06:00Z,28.1560,-82.7580,25.41,1111122 
COMPS,ioos:station:USF.COMPS:TAR:1,2009-09-01T10:12:00Z,28.1560,-82.7580,25.36,1111122 
COMPS,ioos:station:USF.COMPS:TAR:1,2009-09-01T10:18:00Z,28.1560,-82.7580,25.3,1111122 
COMPS,ioos:station:USF.COMPS:TAR:1,2009-09-01T10:24:00Z,28.1560,-82.7580,25.52,1111122 
COMPS,ioos:station:USF.COMPS:TAR:1,2009-09-01T10:30:00Z,28.1560,-82.7580,25.47,1111122 
COMPS,ioos:station:USF.COMPS:TAR:1,2009-09-01T10:36:00Z,28.1560,-82.7580,25.36,1111122 
COMPS,ioos:station:USF.COMPS:TAR:1,2009-09-01T10:42:00Z,28.1560,-82.7580,25.36,1111122 
COMPS,ioos:station:USF.COMPS:TAR:1,2009-09-01T10:48:00Z,28.1560,-82.7580,25.37,1111122 
COMPS,ioos:station:USF.COMPS:TAR:1,2009-09-01T10:54:00Z,28.1560,-82.7580,25.35,1111122 
COMPS,ioos:station:USF.COMPS:TAR:1,2009-09-01T11:00:00Z,28.1560,-82.7580,25.31,1111122 
COMPS,ioos:station:USF.COMPS:TAR:1,2009-09-01T11:06:00Z,28.1560,-82.7580,25.25,1111122 
COMPS,ioos:station:USF.COMPS:TAR:1,2009-09-01T11:12:00Z,28.1560,-82.7580,25.19,1111122 
COMPS,ioos:station:USF.COMPS:TAR:1,2009-09-01T11:18:00Z,28.1560,-82.7580,25.15,1111122 
COMPS,ioos:station:USF.COMPS:TAR:1,2009-09-01T11:24:00Z,28.1560,-82.7580,25.35,1111122 
COMPS,ioos:station:USF.COMPS:TAR:1,2009-09-01T11:30:00Z,28.1560,-82.7580,25.26,1111122 
COMPS,ioos:station:USF.COMPS:TAR:1,2009-09-01T11:36:00Z,28.1560,-82.7580,25.35,1111122 
COMPS,ioos:station:USF.COMPS:TAR:1,2009-09-01T11:42:00Z,28.1560,-82.7580,25.37,1111122 
COMPS,ioos:station:USF.COMPS:TAR:1,2009-09-01T11:48:00Z,28.1560,-82.7580,25.46,1111122 
COMPS,ioos:station:USF.COMPS:TAR:1,2009-09-01T11:54:00Z,28.1560,-82.7580,25.52,1111122 
COMPS,ioos:station:USF.COMPS:TAR:1,2009-09-01T12:00:00Z,28.1560,-82.7580,25.87,1111122 
COMPS,ioos:station:USF.COMPS:TAR:1,2009-09-01T12:06:00Z,28.1560,-82.7580,26.17,1111122 
COMPS,ioos:station:USF.COMPS:TAR:1,2009-09-01T12:12:00Z,28.1560,-82.7580,26.98,1111122 
COMPS,ioos:station:USF.COMPS:TAR:1,2009-09-01T12:18:00Z,28.1560,-82.7580,28.11,1111122 
COMPS,ioos:station:USF.COMPS:TAR:1,2009-09-01T12:24:00Z,28.1560,-82.7580,28.49,1111122 
COMPS,ioos:station:USF.COMPS:TAR:1,2009-09-01T12:30:00Z,28.1560,-82.7580,28.85,1111122 
COMPS,ioos:station:USF.COMPS:TAR:1,2009-09-01T12:36:00Z,28.1560,-82.7580,28.69,1111122 
COMPS,ioos:station:USF.COMPS:TAR:1,2009-09-01T12:42:00Z,28.1560,-82.7580,27.56,1111122 
COMPS,ioos:station:USF.COMPS:TAR:1,2009-09-01T12:48:00Z,28.1560,-82.7580,27.36,1111122 
COMPS,ioos:station:USF.COMPS:TAR:1,2009-09-01T12:54:00Z,28.1560,-82.7580,27.21,1111122 
COMPS,ioos:station:USF.COMPS:TAR:1,2009-09-01T13:00:00Z,28.1560,-82.7580,27.25,1111122 
COMPS,ioos:station:USF.COMPS:TAR:1,2009-09-01T13:06:00Z,28.1560,-82.7580,27.54,1111122 
COMPS,ioos:station:USF.COMPS:TAR:1,2009-09-01T13:12:00Z,28.1560,-82.7580,27.5,1111122 
COMPS,ioos:station:USF.COMPS:TAR:1,2009-09-01T13:18:00Z,28.1560,-82.7580,27.25,1111122 
COMPS,ioos:station:USF.COMPS:TAR:1,2009-09-01T13:24:00Z,28.1560,-82.7580,27.36,1111122 
COMPS,ioos:station:USF.COMPS:TAR:1,2009-09-01T13:30:00Z,28.1560,-82.7580,27.6,1111122 
COMPS,ioos:station:USF.COMPS:TAR:1,2009-09-01T13:36:00Z,28.1560,-82.7580,27.6,1111122 
COMPS,ioos:station:USF.COMPS:TAR:1,2009-09-01T13:42:00Z,28.1560,-82.7580,27.45,1111122 
COMPS,ioos:station:USF.COMPS:TAR:1,2009-09-01T13:48:00Z,28.1560,-82.7580,27.44,1111122 
COMPS,ioos:station:USF.COMPS:TAR:1,2009-09-01T13:54:00Z,28.1560,-82.7580,27.53,1111122 
COMPS,ioos:station:USF.COMPS:TAR:1,2009-09-01T14:00:00Z,28.1560,-82.7580,27.61,1111122 
COMPS,ioos:station:USF.COMPS:TAR:1,2009-09-01T14:06:00Z,28.1560,-82.7580,27.57,1111122 
COMPS,ioos:station:USF.COMPS:TAR:1,2009-09-01T14:12:00Z,28.1560,-82.7580,27.32,1111122 
COMPS,ioos:station:USF.COMPS:TAR:1,2009-09-01T14:18:00Z,28.1560,-82.7580,27.29,1111122 
COMPS,ioos:station:USF.COMPS:TAR:1,2009-09-01T14:24:00Z,28.1560,-82.7580,27.51,1111122 
COMPS,ioos:station:USF.COMPS:TAR:1,2009-09-01T14:30:00Z,28.1560,-82.7580,27.43,1111122 
COMPS,ioos:station:USF.COMPS:TAR:1,2009-09-01T14:36:00Z,28.1560,-82.7580,27.18,1111122 
COMPS,ioos:station:USF.COMPS:TAR:1,2009-09-01T14:42:00Z,28.1560,-82.7580,27.14,1111122 
COMPS,ioos:station:USF.COMPS:TAR:1,2009-09-01T14:48:00Z,28.1560,-82.7580,27.5,1111122 
COMPS,ioos:station:USF.COMPS:TAR:1,2009-09-01T14:54:00Z,28.1560,-82.7580,27.49,1111122 
COMPS,ioos:station:USF.COMPS:TAR:1,2009-09-01T15:00:00Z,28.1560,-82.7580,27.16,1111122 
COMPS,ioos:station:USF.COMPS:TAR:1,2009-09-01T15:06:00Z,28.1560,-82.7580,27.52,1111122 
COMPS,ioos:station:USF.COMPS:TAR:1,2009-09-01T15:12:00Z,28.1560,-82.7580,28.0,1111122 
COMPS,ioos:station:USF.COMPS:TAR:1,2009-09-01T15:18:00Z,28.1560,-82.7580,27.99,1111122 
COMPS,ioos:station:USF.COMPS:TAR:1,2009-09-01T15:24:00Z,28.1560,-82.7580,27.97,1111122 
COMPS,ioos:station:USF.COMPS:TAR:1,2009-09-01T15:30:00Z,28.1560,-82.7580,27.95,1111122 
COMPS,ioos:station:USF.COMPS:TAR:1,2009-09-01T15:36:00Z,28.1560,-82.7580,27.92,1111122 
COMPS,ioos:station:USF.COMPS:TAR:1,2009-09-01T15:42:00Z,28.1560,-82.7580,27.94,1111122 
COMPS,ioos:station:USF.COMPS:TAR:1,2009-09-01T15:48:00Z,28.1560,-82.7580,27.88,1111122 
COMPS,ioos:station:USF.COMPS:TAR:1,2009-09-01T15:54:00Z,28.1560,-82.7580,27.87,1111122 
COMPS,ioos:station:USF.COMPS:TAR:1,2009-09-01T16:00:00Z,28.1560,-82.7580,28.29,1111122 
COMPS,ioos:station:USF.COMPS:TAR:1,2009-09-01T16:06:00Z,28.1560,-82.7580,28.73,1111122 
COMPS,ioos:station:USF.COMPS:TAR:1,2009-09-01T16:12:00Z,28.1560,-82.7580,28.83,1111122 
COMPS,ioos:station:USF.COMPS:TAR:1,2009-09-01T16:18:00Z,28.1560,-82.7580,28.84,1111122 
COMPS,ioos:station:USF.COMPS:TAR:1,2009-09-01T16:24:00Z,28.1560,-82.7580,29.08,1111122 
COMPS,ioos:station:USF.COMPS:TAR:1,2009-09-01T16:30:00Z,28.1560,-82.7580,29.06,1111122 
COMPS,ioos:station:USF.COMPS:TAR:1,2009-09-01T16:36:00Z,28.1560,-82.7580,28.96,1111122 
COMPS,ioos:station:USF.COMPS:TAR:1,2009-09-01T16:42:00Z,28.1560,-82.7580,29.02,1111122 
COMPS,ioos:station:USF.COMPS:TAR:1,2009-09-01T16:48:00Z,28.1560,-82.7580,29.04,1111122 
COMPS,ioos:station:USF.COMPS:TAR:1,2009-09-01T16:54:00Z,28.1560,-82.7580,29.11,1111122 
COMPS,ioos:station:USF.COMPS:TAR:1,2009-09-01T17:00:00Z,28.1560,-82.7580,29.01,1111122 
COMPS,ioos:station:USF.COMPS:TAR:1,2009-09-01T17:06:00Z,28.1560,-82.7580,29.06,1111122 
COMPS,ioos:station:USF.COMPS:TAR:1,2009-09-01T17:12:00Z,28.1560,-82.7580,28.96,1111122 
COMPS,ioos:station:USF.COMPS:TAR:1,2009-09-01T17:18:00Z,28.1560,-82.7580,28.83,1111122 
COMPS,ioos:station:USF.COMPS:TAR:1,2009-09-01T17:24:00Z,28.1560,-82.7580,28.99,1111122 
COMPS,ioos:station:USF.COMPS:TAR:1,2009-09-01T17:30:00Z,28.1560,-82.7580,28.96,1111122 
COMPS,ioos:station:USF.COMPS:TAR:1,2009-09-01T17:36:00Z,28.1560,-82.7580,29.08,1111122 
COMPS,ioos:station:USF.COMPS:TAR:1,2009-09-01T17:42:00Z,28.1560,-82.7580,29.26,1111122 
COMPS,ioos:station:USF.COMPS:TAR:1,2009-09-01T17:48:00Z,28.1560,-82.7580,29.45,1111122 
COMPS,ioos:station:USF.COMPS:TAR:1,2009-09-01T17:54:00Z,28.1560,-82.7580,29.46,1111122 
COMPS,ioos:station:USF.COMPS:TAR:1,2009-09-01T18:00:00Z,28.1560,-82.7580,29.37,1111122 
COMPS,ioos:station:USF.COMPS:TAR:1,2009-09-01T18:06:00Z,28.1560,-82.7580,29.37,1111122 
COMPS,ioos:station:USF.COMPS:TAR:1,2009-09-01T18:12:00Z,28.1560,-82.7580,29.37,1111122 
COMPS,ioos:station:USF.COMPS:TAR:1,2009-09-01T18:18:00Z,28.1560,-82.7580,29.48,1111122 
COMPS,ioos:station:USF.COMPS:TAR:1,2009-09-01T18:24:00Z,28.1560,-82.7580,29.58,1111122 
COMPS,ioos:station:USF.COMPS:TAR:1,2009-09-01T18:30:00Z,28.1560,-82.7580,29.51,1111122 
COMPS,ioos:station:USF.COMPS:TAR:1,2009-09-01T18:36:00Z,28.1560,-82.7580,29.51,1111122 
COMPS,ioos:station:USF.COMPS:TAR:1,2009-09-01T18:42:00Z,28.1560,-82.7580,29.6,1111122 
COMPS,ioos:station:USF.COMPS:TAR:1,2009-09-01T18:48:00Z,28.1560,-82.7580,29.67,1111122 
COMPS,ioos:station:USF.COMPS:TAR:1,2009-09-01T18:54:00Z,28.1560,-82.7580,29.82,1111122 
COMPS,ioos:station:USF.COMPS:TAR:1,2009-09-01T19:00:00Z,28.1560,-82.7580,29.95,1111122 
COMPS,ioos:station:USF.COMPS:TAR:1,2009-09-01T19:06:00Z,28.1560,-82.7580,30.12,1111122 
COMPS,ioos:station:USF.COMPS:TAR:1,2009-09-01T19:12:00Z,28.1560,-82.7580,30.18,1111122 
COMPS,ioos:station:USF.COMPS:TAR:1,2009-09-01T19:18:00Z,28.1560,-82.7580,30.41,1111122 
COMPS,ioos:station:USF.COMPS:TAR:1,2009-09-01T19:24:00Z,28.1560,-82.7580,30.74,1111122 
COMPS,ioos:station:USF.COMPS:TAR:1,2009-09-01T19:30:00Z,28.1560,-82.7580,30.82,1111122 
COMPS,ioos:station:USF.COMPS:TAR:1,2009-09-01T19:36:00Z,28.1560,-82.7580,31.23,1111122 
COMPS,ioos:station:USF.COMPS:TAR:1,2009-09-01T19:42:00Z,28.1560,-82.7580,31.56,1111122 
COMPS,ioos:station:USF.COMPS:TAR:1,2009-09-01T19:48:00Z,28.1560,-82.7580,31.52,1111122 
COMPS,ioos:station:USF.COMPS:TAR:1,2009-09-01T19:54:00Z,28.1560,-82.7580,31.49,1111122 
COMPS,ioos:station:USF.COMPS:TAR:1,2009-09-01T20:00:00Z,28.1560,-82.7580,31.71,1111122 
COMPS,ioos:station:USF.COMPS:TAR:1,2009-09-01T20:06:00Z,28.1560,-82.7580,31.86,1111122 
COMPS,ioos:station:USF.COMPS:TAR:1,2009-09-01T20:12:00Z,28.1560,-82.7580,32.02,1111122 
COMPS,ioos:station:USF.COMPS:TAR:1,2009-09-01T20:18:00Z,28.1560,-82.7580,32.24,1111122 
COMPS,ioos:station:USF.COMPS:TAR:1,2009-09-01T20:24:00Z,28.1560,-82.7580,32.36,1111122 
COMPS,ioos:station:USF.COMPS:TAR:1,2009-09-01T20:30:00Z,28.1560,-82.7580,32.1,1111122 
COMPS,ioos:station:USF.COMPS:TAR:1,2009-09-01T20:36:00Z,28.1560,-82.7580,31.39,1111122 
COMPS,ioos:station:USF.COMPS:TAR:1,2009-09-01T20:42:00Z,28.1560,-82.7580,31.38,1111122 
COMPS,ioos:station:USF.COMPS:TAR:1,2009-09-01T20:48:00Z,28.1560,-82.7580,31.7,1111122 
COMPS,ioos:station:USF.COMPS:TAR:1,2009-09-01T20:54:00Z,28.1560,-82.7580,32.25,1111122 
COMPS,ioos:station:USF.COMPS:TAR:1,2009-09-02T14:00:00Z,28.1560,-82.7580,24.2,1111122 
COMPS,ioos:station:USF.COMPS:TAR:1,2009-09-02T14:06:00Z,28.1560,-82.7580,24.29,1111122 
COMPS,ioos:station:USF.COMPS:TAR:1,2009-09-02T14:12:00Z,28.1560,-82.7580,24.4,1111122 
COMPS,ioos:station:USF.COMPS:TAR:1,2009-09-02T14:18:00Z,28.1560,-82.7580,24.45,1111122 
COMPS,ioos:station:USF.COMPS:TAR:1,2009-09-02T14:24:00Z,28.1560,-82.7580,24.57,1111122 
COMPS,ioos:station:USF.COMPS:TAR:1,2009-09-02T14:30:00Z,28.1560,-82.7580,24.54,1111122 
COMPS,ioos:station:USF.COMPS:TAR:1,2009-09-02T14:36:00Z,28.1560,-82.7580,24.63,1111122 
COMPS,ioos:station:USF.COMPS:TAR:1,2009-09-02T14:42:00Z,28.1560,-82.7580,24.68,1111122 
COMPS,ioos:station:USF.COMPS:TAR:1,2009-09-02T14:48:00Z,28.1560,-82.7580,24.8,1111122 
COMPS,ioos:station:USF.COMPS:TAR:1,2009-09-02T14:54:00Z,28.1560,-82.7580,24.94,1111122 
COMPS,ioos:station:USF.COMPS:TAR:1,2009-09-02T15:00:00Z,28.1560,-82.7580,25.26,1111122 
COMPS,ioos:station:USF.COMPS:TAR:1,2009-09-02T15:06:00Z,28.1560,-82.7580,25.56,1111122 
COMPS,ioos:station:USF.COMPS:TAR:1,2009-09-02T15:12:00Z,28.1560,-82.7580,25.73,1111122 
COMPS,ioos:station:USF.COMPS:TAR:1,2009-09-02T15:18:00Z,28.1560,-82.7580,25.72,1111122 
COMPS,ioos:station:USF.COMPS:TAR:1,2009-09-02T15:24:00Z,28.1560,-82.7580,25.99,1111122 
COMPS,ioos:station:USF.COMPS:TAR:1,2009-09-02T15:30:00Z,28.1560,-82.7580,26.09,1111122 
COMPS,ioos:station:USF.COMPS:TAR:1,2009-09-02T15:36:00Z,28.1560,-82.7580,26.26,1111122 
COMPS,ioos:station:USF.COMPS:TAR:1,2009-09-02T15:42:00Z,28.1560,-82.7580,26.29,1111122 
COMPS,ioos:station:USF.COMPS:TAR:1,2009-09-02T15:48:00Z,28.1560,-82.7580,26.61,1111122 
COMPS,ioos:station:USF.COMPS:TAR:1,2009-09-02T15:54:00Z,28.1560,-82.7580,26.74,1111122 
COMPS,ioos:station:USF.COMPS:TAR:1,2009-09-02T16:00:00Z,28.1560,-82.7580,26.89,1111122 
COMPS,ioos:station:USF.COMPS:TAR:1,2009-09-02T16:06:00Z,28.1560,-82.7580,27.44,1111122 
COMPS,ioos:station:USF.COMPS:TAR:1,2009-09-02T16:12:00Z,28.1560,-82.7580,27.14,1111122 
COMPS,ioos:station:USF.COMPS:TAR:1,2009-09-02T16:18:00Z,28.1560,-82.7580,27.19,1111122 
COMPS,ioos:station:USF.COMPS:TAR:1,2009-09-02T16:24:00Z,28.1560,-82.7580,27.56,1111122 
COMPS,ioos:station:USF.COMPS:TAR:1,2009-09-02T16:30:00Z,28.1560,-82.7580,27.81,1111122 
COMPS,ioos:station:USF.COMPS:TAR:1,2009-09-02T16:36:00Z,28.1560,-82.7580,28.49,1111122 
COMPS,ioos:station:USF.COMPS:TAR:1,2009-09-02T16:42:00Z,28.1560,-82.7580,28.81,1111122 
COMPS,ioos:station:USF.COMPS:TAR:1,2009-09-02T16:48:00Z,28.1560,-82.7580,28.36,1111122 
COMPS,ioos:station:USF.COMPS:TAR:1,2009-09-02T16:54:00Z,28.1560,-82.7580,29.03,1111122 
COMPS,ioos:station:USF.COMPS:TAR:1,2009-09-02T17:00:00Z,28.1560,-82.7580,29.44,1111122 
COMPS,ioos:station:USF.COMPS:TAR:1,2009-09-02T17:06:00Z,28.1560,-82.7580,29.13,1111122 
COMPS,ioos:station:USF.COMPS:TAR:1,2009-09-02T17:12:00Z,28.1560,-82.7580,28.73,1111122 
COMPS,ioos:station:USF.COMPS:TAR:1,2009-09-02T17:18:00Z,28.1560,-82.7580,28.94,1111122 
COMPS,ioos:station:USF.COMPS:TAR:1,2009-09-02T17:24:00Z,28.1560,-82.7580,29.28,1111122 
COMPS,ioos:station:USF.COMPS:TAR:1,2009-09-02T17:30:00Z,28.1560,-82.7580,29.85,1111122 
COMPS,ioos:station:USF.COMPS:TAR:1,2009-09-02T17:36:00Z,28.1560,-82.7580,29.71,1111122 
COMPS,ioos:station:USF.COMPS:TAR:1,2009-09-02T17:42:00Z,28.1560,-82.7580,29.54,1111122 
COMPS,ioos:station:USF.COMPS:TAR:1,2009-09-02T17:48:00Z,28.1560,-82.7580,29.33,1111122 
COMPS,ioos:station:USF.COMPS:TAR:1,2009-09-02T17:54:00Z,28.1560,-82.7580,29.68,1111122 
COMPS,ioos:station:USF.COMPS:TAR:1,2009-09-02T18:00:00Z,28.1560,-82.7580,29.7,1111122 
COMPS,ioos:station:USF.COMPS:TAR:1,2009-09-02T18:06:00Z,28.1560,-82.7580,29.76,1111122 
COMPS,ioos:station:USF.COMPS:TAR:1,2009-09-02T18:12:00Z,28.1560,-82.7580,29.93,1111122 
COMPS,ioos:station:USF.COMPS:TAR:1,2009-09-02T18:18:00Z,28.1560,-82.7580,30.18,1111122 
COMPS,ioos:station:USF.COMPS:TAR:1,2009-09-02T18:24:00Z,28.1560,-82.7580,30.4,1111122 
COMPS,ioos:station:USF.COMPS:TAR:1,2009-09-02T18:30:00Z,28.1560,-82.7580,30.95,1111122 
COMPS,ioos:station:USF.COMPS:TAR:1,2009-09-02T18:36:00Z,28.1560,-82.7580,31.45,1111122 
COMPS,ioos:station:USF.COMPS:TAR:1,2009-09-02T18:42:00Z,28.1560,-82.7580,31.13,1111122 
COMPS,ioos:station:USF.COMPS:TAR:1,2009-09-02T18:48:00Z,28.1560,-82.7580,31.32,1111122 
COMPS,ioos:station:USF.COMPS:TAR:1,2009-09-02T18:54:00Z,28.1560,-82.7580,31.44,1111122 
COMPS,ioos:station:USF.COMPS:TAR:1,2009-09-02T19:00:00Z,28.1560,-82.7580,31.14,1111122 
COMPS,ioos:station:USF.COMPS:TAR:1,2009-09-02T19:06:00Z,28.1560,-82.7580,31.86,1111122 
COMPS,ioos:station:USF.COMPS:TAR:1,2009-09-02T19:12:00Z,28.1560,-82.7580,32.63,1111122 
COMPS,ioos:station:USF.COMPS:TAR:1,2009-09-02T19:18:00Z,28.1560,-82.7580,33.84,1111122 
COMPS,ioos:station:USF.COMPS:TAR:1,2009-09-02T19:24:00Z,28.1560,-82.7580,34.99,1111122 
COMPS,ioos:station:USF.COMPS:TAR:1,2009-09-02T19:30:00Z,28.1560,-82.7580,35.58,1111122 
COMPS,ioos:station:USF.COMPS:TAR:1,2009-09-02T19:36:00Z,28.1560,-82.7580,36.12,1111122 
COMPS,ioos:station:USF.COMPS:TAR:1,2009-09-02T19:42:00Z,28.1560,-82.7580,36.06,1111122 
COMPS,ioos:station:USF.COMPS:TAR:1,2009-09-02T19:48:00Z,28.1560,-82.7580,35.65,1111122 
COMPS,ioos:station:USF.COMPS:TAR:1,2009-09-02T19:54:00Z,28.1560,-82.7580,35.33,1111122 
COMPS,ioos:station:USF.COMPS:TAR:1,2009-09-02T20:00:00Z,28.1560,-82.7580,35.37,1111122 
COMPS,ioos:station:USF.COMPS:TAR:1,2009-09-02T20:06:00Z,28.1560,-82.7580,35.58,1111122 